Find Starlink 32311

NORAD ID: 62114 Int'l Des: 2024-222 Owner: SPXS Country: US Constellation: starlink operational
LEOCIRCULAR

現在のビュー

3D地球を読み込み中...

About Starlink 32311

Starlink 32311 (NORAD 62114) is a starlink constellation satellite (v2 mini) launched Nov 27, 2024 by SPXS of US. It operates in LEO, CIRCULAR orbit with a mass of 730.00 kg.

Starlink 32311について

説明を読み込み中...

次回通過

Passes for default location (London). Set your location on the main map for personalized predictions.

高度履歴

Loading altitude history...

軌道要素

1 62114U 24222A 26170.57156470 .00011798 00000-0 43744-3 0 9998
2 62114 42.9988 265.8300 0001018 269.8581 90.2154 15.27588998 88660
Epoch: Jun 19, 2026 • Age: 29 hours

現在のステータス

高度 484.5 km
速度 7.63 km/s
衛星直下点 32.33°N, 150.25°W
打ち上げ日 Nov 27, 2024
運用期間 1.5 years
タイプ internet

技術仕様

分類 Payload
質量 730.00 kg
乾燥質量 700.00 kg
総質量 730.00 kg
長さ 0.30 m
直径 4.10 m
スパン 29.00 m
形状 Box + pan
製造者 SPXS
バスタイプ Starlink V2M
フェーズステータス In Orbit
所有者/国 SPXS/US

Most Searched